Flag for Spain Weather past 2 weeks in Madrid, Spain

Now
77 °F

Scattered clouds.


Feels Like: 77 °F
Forecast: 54 / 80 °F
Wind: 5 mph from North

Location: Madrid / Cuatro Vientos

Current Time: May 25, 2015 at 2:51:36 PM

Latest Report: May 25, 2015 at 2:00 PM


Visibility: N/A

Pressure: 30.09 "Hg

Humidity: 24%

Dew point: 37 °F

Location of MadridLocation

Historic Weather in Madrid — Graph

°F

Madrid temperature yesterday

Maximum temperature yesterday: 77 °F (at 3:30 PM)
Minimum temperature yesterday: 52 °F (at 7:00 AM)
Average temperature yesterday: 68 °F

Past Weeks' High & Low Weather Summary

 TemperatureHumidityPressure
High97 °F (May 13, 4:00 PM)71% (May 16, 7:30 AM)30.33 "Hg (May 16, 7:30 AM)
Low45 °F (May 20, 7:00 AM)10% (May 13, 5:00 PM)29.80 "Hg (May 19, 7:00 AM)
Average72 °F31%30.13 "Hg
* Reported May 10 1:00 PM — May 25 1:30 PM, Madrid, Weather by CustomWeather, © 2015

Note: Actual official high and low records may vary slightly from our data, if they occured in-between our weather recording intervals... More about our weather records

Advertising

Madrid weather history for previous 24 hours

 ConditionsComfort  
Time TempWeatherWind HumidityBarometerVisibility
1:30 PM
Mon, May 25
75 °FPassing clouds.3 mph27%30.09 "HgN/A
1:00 PM73 °FPassing clouds.2 mph31%30.09 "HgN/A
12:00 PM70 °FSunny.3 mph38%30.12 "Hg10 mi
11:30 AM70 °FPassing clouds.8 mph35%30.12 "HgN/A
11:00 AM70 °FSunny.3 mph38%30.12 "Hg10 mi
10:30 AM66 °FSunny.6 mph46%30.12 "Hg10 mi
10:00 AM63 °FPassing clouds.5 mph52%30.12 "HgN/A
9:30 AM61 °FPassing clouds.5 mph55%30.12 "HgN/A
9:00 AM61 °FPassing clouds.5 mph55%30.12 "HgN/A
8:30 AM61 °FSunny.3 mph55%30.12 "Hg10 mi
8:00 AM59 °FPassing clouds.3 mph59%30.09 "HgN/A
7:30 AM57 °FClear.2 mph63%30.09 "Hg10 mi
7:00 AM57 °FPassing clouds.2 mph63%30.09 "HgN/A
10:00 PM
Sun, May 24
70 °FPassing clouds.7 mph33%30.01 "HgN/A
9:30 PM70 °FPassing clouds.7 mph31%30.01 "HgN/A
9:00 PM70 °FPassing clouds.7 mph31%30.01 "HgN/A
8:30 PM72 °FPassing clouds.6 mph29%29.98 "HgN/A
8:00 PM73 °FPassing clouds.5 mph27%29.98 "HgN/A
7:30 PM73 °FScattered clouds.2 mph27%29.98 "HgN/A
7:00 PM73 °FScattered clouds.No wind25%29.98 "HgN/A
6:30 PM75 °FScattered clouds.3 mph24%29.98 "HgN/A
6:00 PM73 °FPartly sunny.2 mph25%29.98 "HgN/A
5:30 PM73 °FPartly sunny.5 mph29%29.98 "HgN/A
5:00 PM73 °FPartly sunny.2 mph27%29.98 "HgN/A
4:30 PM73 °FPartly sunny.No wind25%30.01 "HgN/A
4:00 PM77 °FScattered clouds.7 mph22%30.01 "HgN/A
3:30 PM77 °FScattered clouds.6 mph24%30.01 "HgN/A
3:00 PM75 °FScattered clouds.3 mph27%30.01 "HgN/A
2:30 PM75 °FPassing clouds.3 mph29%30.04 "HgN/A
2:00 PM72 °FPassing clouds.6 mph33%30.04 "HgN/A
Weather by CustomWeather, © 2015

See weather overviewHow to use our weather pages